Time,TemperatureF,DewpointF,PressureIn,WindDirection,WindDirectionDegrees,WindSpeedMPH,WindSpeedGustMPH,Humidity,HourlyPrecipIn,Conditions,Clouds,dailyrainin,SoftwareType,DateUTC
2013-01-08 00:00:00,26.6,21.2,30.16,West,270,0.0,0.0,80,0.00,,,0.00,WUHU216HW,2013-01-08 05:00:00,
2013-01-08 00:01:00,26.6,21.2,30.16,West,270,0.0,0.0,80,0.00,,,0.00,WUHU216HW,2013-01-08 05:01:00,
2013-01-08 00:06:00,26.5,21.1,30.16,West,270,0.0,0.0,80,0.00,,,0.00,WUHU216HW,2013-01-08 05:06:00,
2013-01-08 00:11:00,26.5,21.1,30.16,West,270,0.0,0.0,80,0.00,,,0.00,WUHU216HW,2013-01-08 05:11:00,
2013-01-08 00:16:00,26.3,20.9,30.16,West,270,0.0,0.0,80,0.00,,,0.00,WUHU216HW,2013-01-08 05:16:00,
2013-01-08 00:21:00,26.3,20.9,30.16,West,270,0.0,0.0,80,0.00,,,0.00,WUHU216HW,2013-01-08 05:21:00,
2013-01-08 00:26:00,26.3,20.9,30.16,West,270,0.0,0.0,80,0.00,,,0.00,WUHU216HW,2013-01-08 05:26:00,
2013-01-08 00:31:00,26.1,21.1,30.16,West,270,0.0,0.0,81,0.00,,,0.00,WUHU216HW,2013-01-08 05:31:00,
2013-01-08 00:36:00,26.1,21.1,30.15,West,270,0.0,0.0,81,0.00,,,0.00,WUHU216HW,2013-01-08 05:36:00,
2013-01-08 00:41:00,26.1,20.8,30.15,West,270,0.0,0.0,80,0.00,,,0.00,WUHU216HW,2013-01-08 05:41:00,
2013-01-08 00:46:00,26.1,20.8,30.15,North,0,0.0,0.4,80,0.00,,,0.00,WUHU216HW,2013-01-08 05:46:00,
2013-01-08 00:51:00,26.1,20.8,30.16,North,0,0.0,0.4,80,0.00,,,0.00,WUHU216HW,2013-01-08 05:51:00,
2013-01-08 00:56:00,26.1,20.8,30.15,North,0,0.0,0.0,80,0.00,,,0.00,WUHU216HW,2013-01-08 05:56:00,
2013-01-08 01:01:00,26.1,20.8,30.15,NNW,338,0.0,0.2,80,0.00,,,0.00,WUHU216HW,2013-01-08 06:01:00,
2013-01-08 01:06:00,26.1,20.8,30.15,NNW,338,0.0,0.2,80,0.00,,,0.00,WUHU216HW,2013-01-08 06:06:00,
2013-01-08 01:11:00,25.9,20.9,30.15,NNW,338,0.0,0.0,81,0.00,,,0.00,WUHU216HW,2013-01-08 06:11:00,
2013-01-08 01:16:00,25.9,20.9,30.15,NW,315,0.0,0.0,81,0.00,,,0.00,WUHU216HW,2013-01-08 06:16:00,
2013-01-08 01:21:00,25.9,20.9,30.15,SSW,203,0.2,0.4,81,0.00,,,0.00,WUHU216HW,2013-01-08 06:21:00,
2013-01-08 01:26:00,25.9,20.9,30.14,SSW,203,0.0,0.4,81,0.00,,,0.00,WUHU216HW,2013-01-08 06:26:00,
2013-01-08 01:31:00,25.9,20.9,30.14,WNW,293,0.0,0.2,81,0.00,,,0.00,WUHU216HW,2013-01-08 06:31:00,
2013-01-08 01:36:00,25.9,20.9,30.14,WNW,293,0.0,0.0,81,0.00,,,0.00,WUHU216HW,2013-01-08 06:36:00,
2013-01-08 01:41:00,25.9,20.9,30.14,WNW,293,0.0,0.0,81,0.00,,,0.00,WUHU216HW,2013-01-08 06:41:00,
2013-01-08 01:46:00,25.7,20.7,30.14,WNW,293,0.0,0.0,81,0.00,,,0.00,WUHU216HW,2013-01-08 06:46:00,
2013-01-08 01:51:00,25.6,20.8,30.14,WNW,293,0.0,0.0,82,0.00,,,0.00,WUHU216HW,2013-01-08 06:51:00,
2013-01-08 01:56:00,25.6,20.8,30.14,WNW,293,0.0,0.0,82,0.00,,,0.00,WUHU216HW,2013-01-08 06:56:00,
2013-01-08 02:01:00,25.6,20.8,30.14,WNW,293,0.0,0.0,82,0.00,,,0.00,WUHU216HW,2013-01-08 07:01:00,
2013-01-08 02:06:00,25.6,20.8,30.14,SW,225,0.2,0.2,82,0.00,,,0.00,WUHU216HW,2013-01-08 07:06:00,
2013-01-08 02:11:00,25.6,20.8,30.14,SW,225,0.0,0.2,82,0.00,,,0.00,WUHU216HW,2013-01-08 07:11:00,
2013-01-08 02:16:00,25.6,20.8,30.14,SW,225,0.0,0.2,82,0.00,,,0.00,WUHU216HW,2013-01-08 07:16:00,
2013-01-08 02:21:00,25.4,20.7,30.14,SW,225,0.0,0.0,82,0.00,,,0.00,WUHU216HW,2013-01-08 07:21:00,
2013-01-08 02:26:00,25.4,20.7,30.14,SW,225,0.0,0.0,82,0.00,,,0.00,WUHU216HW,2013-01-08 07:26:00,
2013-01-08 02:31:00,25.4,20.7,30.14,SW,225,0.0,0.0,82,0.00,,,0.00,WUHU216HW,2013-01-08 07:31:00,
2013-01-08 02:36:00,25.4,20.7,30.14,WSW,248,0.0,0.0,82,0.00,,,0.00,WUHU216HW,2013-01-08 07:36:00,
2013-01-08 02:41:00,25.4,20.7,30.14,WSW,248,0.0,0.0,82,0.00,,,0.00,WUHU216HW,2013-01-08 07:41:00,
2013-01-08 02:46:00,25.4,20.7,30.14,WSW,248,0.0,0.0,82,0.00,,,0.00,WUHU216HW,2013-01-08 07:46:00,
2013-01-08 02:51:00,25.4,20.7,30.14,WSW,248,0.0,0.0,82,0.00,,,0.00,WUHU216HW,2013-01-08 07:51:00,
2013-01-08 02:56:00,25.2,20.5,30.14,WSW,248,0.0,0.0,82,0.00,,,0.00,WUHU216HW,2013-01-08 07:56:00,
2013-01-08 03:01:00,25.4,20.7,30.14,WSW,248,0.0,0.0,82,0.00,,,0.00,WUHU216HW,2013-01-08 08:01:00,
2013-01-08 03:06:00,25.2,20.5,30.13,WSW,248,0.0,0.0,82,0.00,,,0.00,WUHU216HW,2013-01-08 08:06:00,
2013-01-08 03:11:00,25.2,20.5,30.13,SSE,158,0.0,0.0,82,0.00,,,0.00,WUHU216HW,2013-01-08 08:11:00,
2013-01-08 03:16:00,25.2,20.5,30.13,South,180,0.0,0.0,82,0.00,,,0.00,WUHU216HW,2013-01-08 08:16:00,
2013-01-08 03:21:00,25.2,20.5,30.13,NW,315,0.4,0.4,82,0.00,,,0.00,WUHU216HW,2013-01-08 08:21:00,
2013-01-08 03:26:00,25.2,20.8,30.13,NW,315,0.0,0.4,83,0.00,,,0.00,WUHU216HW,2013-01-08 08:26:00,
2013-01-08 03:31:00,25.2,20.8,30.13,NW,315,0.0,0.4,83,0.00,,,0.00,WUHU216HW,2013-01-08 08:31:00,
2013-01-08 03:36:00,25.2,20.8,30.13,NW,315,0.0,0.0,83,0.00,,,0.00,WUHU216HW,2013-01-08 08:36:00,
2013-01-08 03:41:00,25.4,21.0,30.13,NW,315,0.0,0.0,83,0.00,,,0.00,WUHU216HW,2013-01-08 08:41:00,
2013-01-08 03:46:00,25.2,20.8,30.13,NW,315,0.0,0.0,83,0.00,,,0.00,WUHU216HW,2013-01-08 08:46:00,
2013-01-08 03:51:00,25.2,20.8,30.13,NW,315,0.0,0.0,83,0.00,,,0.00,WUHU216HW,2013-01-08 08:51:00,
2013-01-08 03:56:00,25.2,20.8,30.13,NW,315,0.0,0.0,83,0.00,,,0.00,WUHU216HW,2013-01-08 08:56:00,
2013-01-08 04:02:00,25.2,20.8,30.13,NNW,338,0.2,0.4,83,0.00,,,0.00,WUHU216HW,2013-01-08 09:02:00,
2013-01-08 04:07:00,25.2,20.8,30.13,SW,225,0.0,0.7,83,0.00,,,0.00,WUHU216HW,2013-01-08 09:07:00,
2013-01-08 04:12:00,25.2,21.1,30.13,WNW,293,0.0,0.7,84,0.00,,,0.00,WUHU216HW,2013-01-08 09:12:00,
2013-01-08 04:17:00,25.4,21.3,30.13,South,180,0.0,0.2,84,0.00,,,0.00,WUHU216HW,2013-01-08 09:17:00,
2013-01-08 04:22:00,25.4,21.3,30.13,WSW,248,0.0,0.2,84,0.00,,,0.00,WUHU216HW,2013-01-08 09:22:00,
2013-01-08 04:27:00,25.6,21.4,30.13,WNW,293,0.0,0.2,84,0.00,,,0.00,WUHU216HW,2013-01-08 09:27:00,
2013-01-08 04:32:00,25.6,21.4,30.13,NW,315,0.2,0.4,84,0.00,,,0.00,WUHU216HW,2013-01-08 09:32:00,
2013-01-08 04:37:00,25.6,21.4,30.13,NW,315,0.4,0.4,84,0.00,,,0.00,WUHU216HW,2013-01-08 09:37:00,
2013-01-08 04:42:00,25.7,21.5,30.13,WSW,248,0.0,0.9,84,0.00,,,0.00,WUHU216HW,2013-01-08 09:42:00,
2013-01-08 04:47:00,25.7,21.5,30.13,WSW,248,0.0,0.9,84,0.00,,,0.00,WUHU216HW,2013-01-08 09:47:00,
2013-01-08 04:52:00,25.7,21.5,30.13,WNW,293,0.0,0.2,84,0.00,,,0.00,WUHU216HW,2013-01-08 09:52:00,
2013-01-08 04:57:00,25.9,21.7,30.13,WNW,293,0.0,0.2,84,0.00,,,0.00,WUHU216HW,2013-01-08 09:57:00,
2013-01-08 05:02:00,25.9,21.7,30.13,WNW,293,0.0,0.0,84,0.00,,,0.00,WUHU216HW,2013-01-08 10:02:00,
2013-01-08 05:07:00,25.9,21.7,30.13,WNW,293,0.0,0.0,84,0.00,,,0.00,WUHU216HW,2013-01-08 10:07:00,
2013-01-08 05:12:00,25.9,21.7,30.13,South,180,0.7,0.9,84,0.00,,,0.00,WUHU216HW,2013-01-08 10:12:00,
2013-01-08 05:17:00,25.9,22.0,30.13,South,180,0.4,1.1,85,0.00,,,0.00,WUHU216HW,2013-01-08 10:17:00,
2013-01-08 05:22:00,26.1,22.1,30.13,West,270,0.0,1.1,85,0.00,,,0.00,WUHU216HW,2013-01-08 10:22:00,
2013-01-08 05:27:00,26.3,22.3,30.14,SW,225,0.4,4.0,85,0.00,,,0.00,WUHU216HW,2013-01-08 10:27:00,
2013-01-08 05:32:00,26.6,22.7,30.13,SSW,203,0.9,4.0,85,0.00,,,0.00,WUHU216HW,2013-01-08 10:32:00,
2013-01-08 05:37:00,27.0,23.0,30.14,SSW,203,0.2,4.0,85,0.00,,,0.00,WUHU216HW,2013-01-08 10:37:00,
2013-01-08 05:42:00,27.2,23.2,30.14,South,180,1.3,1.8,85,0.00,,,0.00,WUHU216HW,2013-01-08 10:42:00,
2013-01-08 05:47:00,27.5,23.9,30.15,WSW,248,1.8,1.8,86,0.00,,,0.00,WUHU216HW,2013-01-08 10:47:00,
2013-01-08 05:52:00,27.7,24.0,30.15,SW,225,0.4,1.8,86,0.00,,,0.00,WUHU216HW,2013-01-08 10:52:00,
2013-01-08 05:57:00,28.1,24.4,30.15,West,270,0.7,1.8,86,0.00,,,0.00,WUHU216HW,2013-01-08 10:57:00,
2013-01-08 06:02:00,28.1,24.4,30.15,SE,135,0.0,1.1,86,0.00,,,0.00,WUHU216HW,2013-01-08 11:02:00,
2013-01-08 06:07:00,28.1,24.1,30.14,SE,135,0.0,1.1,85,0.00,,,0.00,WUHU216HW,2013-01-08 11:07:00,
2013-01-08 06:12:00,28.1,24.1,30.14,South,180,0.0,1.1,85,0.00,,,0.00,WUHU216HW,2013-01-08 11:12:00,
2013-01-08 06:17:00,27.9,23.9,30.15,WNW,293,0.0,0.4,85,0.00,,,0.00,WUHU216HW,2013-01-08 11:17:00,
2013-01-08 06:22:00,27.7,23.8,30.15,SE,135,0.2,1.1,85,0.00,,,0.00,WUHU216HW,2013-01-08 11:22:00,
2013-01-08 06:27:00,27.7,23.8,30.15,South,180,0.2,1.1,85,0.00,,,0.00,WUHU216HW,2013-01-08 11:27:00,
2013-01-08 06:32:00,27.7,23.8,30.15,SSE,158,0.4,0.9,85,0.00,,,0.00,WUHU216HW,2013-01-08 11:32:00,
2013-01-08 06:37:00,27.9,23.9,30.15,WSW,248,0.0,1.1,85,0.00,,,0.00,WUHU216HW,2013-01-08 11:37:00,
2013-01-08 06:42:00,27.9,23.9,30.15,SW,225,0.9,2.0,85,0.00,,,0.00,WUHU216HW,2013-01-08 11:42:00,
2013-01-08 06:47:00,28.1,24.1,30.15,ESE,113,0.0,2.0,85,0.00,,,0.00,WUHU216HW,2013-01-08 11:47:00,
2013-01-08 06:52:00,28.1,24.1,30.15,SSW,203,0.0,0.9,85,0.00,,,0.00,WUHU216HW,2013-01-08 11:52:00,
2013-01-08 06:57:00,28.1,24.1,30.15,SW,225,0.2,0.7,85,0.00,,,0.00,WUHU216HW,2013-01-08 11:57:00,
2013-01-08 07:02:00,28.1,24.1,30.15,West,270,0.0,0.4,85,0.00,,,0.00,WUHU216HW,2013-01-08 12:02:00,
2013-01-08 07:07:00,28.1,24.1,30.16,WSW,248,0.0,1.8,85,0.00,,,0.00,WUHU216HW,2013-01-08 12:07:00,
2013-01-08 07:12:00,28.1,24.1,30.16,SSW,203,0.0,1.8,85,0.00,,,0.00,WUHU216HW,2013-01-08 12:12:00,
2013-01-08 07:17:00,28.1,24.1,30.16,SSW,203,1.1,1.8,85,0.00,,,0.00,WUHU216HW,2013-01-08 12:17:00,
2013-01-08 07:22:00,28.3,24.8,30.16,SSE,158,0.4,2.0,87,0.00,,,0.00,WUHU216HW,2013-01-08 12:22:00,
2013-01-08 07:27:00,28.4,24.8,30.16,ESE,113,0.4,2.0,86,0.00,,,0.00,WUHU216HW,2013-01-08 12:27:00,
2013-01-08 07:32:00,28.4,25.0,30.16,SSE,158,0.4,0.9,87,0.00,,,0.00,WUHU216HW,2013-01-08 12:32:00,
2013-01-08 07:37:00,28.4,25.0,30.17,South,180,2.2,2.2,87,0.00,,,0.00,WUHU216HW,2013-01-08 12:37:00,
2013-01-08 07:42:00,28.4,25.0,30.16,WSW,248,0.4,2.2,87,0.00,,,0.00,WUHU216HW,2013-01-08 12:42:00,
2013-01-08 07:47:00,28.4,25.0,30.17,SE,135,0.2,2.2,87,0.00,,,0.00,WUHU216HW,2013-01-08 12:47:00,
2013-01-08 07:52:00,28.6,25.2,30.17,WSW,248,0.0,0.4,87,0.00,,,0.00,WUHU216HW,2013-01-08 12:52:00,
2013-01-08 07:57:00,28.8,25.1,30.17,West,270,0.0,0.7,86,0.00,,,0.00,WUHU216HW,2013-01-08 12:57:00,
2013-01-08 08:02:00,28.8,25.1,30.17,SW,225,0.0,0.7,86,0.00,,,0.00,WUHU216HW,2013-01-08 13:02:00,
2013-01-08 08:07:00,29.0,25.6,30.17,SSE,158,0.0,0.4,87,0.00,,,0.00,WUHU216HW,2013-01-08 13:07:00,
2013-01-08 08:12:00,29.0,25.3,30.17,West,270,1.1,1.1,86,0.00,,,0.00,WUHU216HW,2013-01-08 13:12:00,
2013-01-08 08:17:00,29.2,25.5,30.17,WSW,248,0.2,1.1,86,0.00,,,0.00,WUHU216HW,2013-01-08 13:17:00,
2013-01-08 08:22:00,29.2,25.5,30.17,South,180,1.8,2.7,86,0.00,,,0.00,WUHU216HW,2013-01-08 13:22:00,
2013-01-08 08:27:00,29.5,25.8,30.17,WSW,248,0.7,2.7,86,0.00,,,0.00,WUHU216HW,2013-01-08 13:27:00,
2013-01-08 08:32:00,29.9,26.5,30.17,South,180,1.1,1.8,87,0.00,,,0.00,WUHU216HW,2013-01-08 13:32:00,
2013-01-08 08:37:00,30.1,26.6,30.17,WSW,248,0.4,1.8,87,0.00,,,0.00,WUHU216HW,2013-01-08 13:37:00,
2013-01-08 08:42:00,30.4,27.4,30.17,WSW,248,1.1,2.5,88,0.00,,,0.00,WUHU216HW,2013-01-08 13:42:00,
2013-01-08 08:47:00,31.0,27.9,30.17,SW,225,1.8,3.4,88,0.00,,,0.00,WUHU216HW,2013-01-08 13:47:00,
2013-01-08 08:52:00,31.3,28.3,30.17,South,180,0.7,3.4,88,0.00,,,0.00,WUHU216HW,2013-01-08 13:52:00,
2013-01-08 08:57:00,31.9,28.8,30.17,SSE,158,0.4,1.8,88,0.00,,,0.00,WUHU216HW,2013-01-08 13:57:00,
2013-01-08 09:02:00,32.2,29.1,30.16,SSW,203,1.6,1.8,88,0.00,,,0.00,WUHU216HW,2013-01-08 14:02:00,
2013-01-08 09:07:00,32.6,29.4,30.16,SSE,158,1.8,1.8,88,0.00,,,0.00,WUHU216HW,2013-01-08 14:07:00,
2013-01-08 09:12:00,32.9,29.4,30.16,SSW,203,2.0,2.2,87,0.00,,,0.00,WUHU216HW,2013-01-08 14:12:00,
2013-01-08 09:17:00,33.5,30.0,30.16,South,180,2.5,3.1,87,0.00,,,0.00,WUHU216HW,2013-01-08 14:17:00,
2013-01-08 09:22:00,34.2,30.6,30.16,SSW,203,2.0,3.1,87,0.00,,,0.00,WUHU216HW,2013-01-08 14:22:00,
2013-01-08 09:27:00,34.7,30.9,30.16,SW,225,1.8,4.0,86,0.00,,,0.00,WUHU216HW,2013-01-08 14:27:00,
2013-01-08 09:32:00,35.6,31.8,30.17,SSW,203,2.5,4.0,86,0.00,,,0.00,WUHU216HW,2013-01-08 14:32:00,
2013-01-08 09:37:00,36.5,32.7,30.16,SW,225,0.9,4.0,86,0.00,,,0.00,WUHU216HW,2013-01-08 14:37:00,
2013-01-08 09:42:00,37.1,33.2,30.16,SSW,203,4.7,4.7,86,0.00,,,0.00,WUHU216HW,2013-01-08 14:42:00,
2013-01-08 09:47:00,38.0,33.6,30.16,SE,135,3.6,4.7,84,0.00,,,0.00,WUHU216HW,2013-01-08 14:47:00,
2013-01-08 09:52:00,38.5,34.1,30.16,SE,135,3.8,8.1,84,0.00,,,0.00,WUHU216HW,2013-01-08 14:52:00,
2013-01-08 09:57:00,39.1,34.4,30.16,South,180,4.7,8.1,83,0.00,,,0.00,WUHU216HW,2013-01-08 14:57:00,
2013-01-08 10:02:00,39.6,34.6,30.16,South,180,2.7,4.7,82,0.00,,,0.00,WUHU216HW,2013-01-08 15:02:00,
2013-01-08 10:07:00,40.0,34.6,30.16,SW,225,0.4,4.7,81,0.00,,,0.00,WUHU216HW,2013-01-08 15:07:00,
2013-01-08 10:12:00,40.1,35.1,30.16,SW,225,3.4,4.3,82,0.00,,,0.00,WUHU216HW,2013-01-08 15:12:00,
2013-01-08 10:17:00,40.9,35.5,30.16,SW,225,3.4,4.3,81,0.00,,,0.00,WUHU216HW,2013-01-08 15:17:00,
2013-01-08 10:22:00,41.4,35.6,30.16,SSE,158,2.9,4.7,80,0.00,,,0.00,WUHU216HW,2013-01-08 15:22:00,
2013-01-08 10:27:00,41.9,35.8,30.16,SW,225,2.9,6.3,79,0.00,,,0.00,WUHU216HW,2013-01-08 15:27:00,
2013-01-08 10:32:00,42.7,36.3,30.16,SE,135,2.9,6.3,78,0.00,,,0.00,WUHU216HW,2013-01-08 15:32:00,
2013-01-08 10:37:00,42.8,36.5,30.16,South,180,1.8,5.4,78,0.00,,,0.00,WUHU216HW,2013-01-08 15:37:00,
2013-01-08 10:42:00,43.7,37.0,30.16,SSW,203,5.4,5.4,77,0.00,,,0.00,WUHU216HW,2013-01-08 15:42:00,
2013-01-08 10:47:00,44.1,37.4,30.16,SSW,203,1.6,6.0,77,0.00,,,0.00,WUHU216HW,2013-01-08 15:47:00,
2013-01-08 10:52:00,44.6,37.2,30.16,SE,135,2.5,6.0,75,0.00,,,0.00,WUHU216HW,2013-01-08 15:52:00,
2013-01-08 10:57:00,44.8,37.4,30.16,SSE,158,1.8,4.0,75,0.00,,,0.00,WUHU216HW,2013-01-08 15:57:00,
2013-01-08 11:02:00,45.7,38.6,30.15,SSW,203,4.5,8.3,76,0.00,,,0.00,WUHU216HW,2013-01-08 16:02:00,
2013-01-08 11:07:00,46.6,39.2,30.15,South,180,3.6,8.3,75,0.00,,,0.00,WUHU216HW,2013-01-08 16:07:00,
2013-01-08 11:12:00,47.3,39.4,30.14,SSE,158,0.9,5.6,74,0.00,,,0.00,WUHU216HW,2013-01-08 16:12:00,
2013-01-08 11:17:00,47.9,39.2,30.14,SSW,203,5.6,5.6,72,0.00,,,0.00,WUHU216HW,2013-01-08 16:17:00,
2013-01-08 11:22:00,48.1,39.4,30.14,SSW,203,5.4,5.6,72,0.00,,,0.00,WUHU216HW,2013-01-08 16:22:00,
2013-01-08 11:27:00,48.4,39.8,30.13,NNE,23,2.0,5.6,72,0.00,,,0.00,WUHU216HW,2013-01-08 16:27:00,
2013-01-08 11:32:00,49.3,40.3,30.13,WSW,248,3.4,5.4,71,0.00,,,0.00,WUHU216HW,2013-01-08 16:32:00,
2013-01-08 11:37:00,50.0,40.3,30.13,SW,225,6.3,6.7,69,0.00,,,0.00,WUHU216HW,2013-01-08 16:37:00,
2013-01-08 11:42:00,50.8,41.1,30.13,SW,225,3.8,6.7,69,0.00,,,0.00,WUHU216HW,2013-01-08 16:42:00,
2013-01-08 11:47:00,51.1,41.0,30.13,South,180,4.5,6.3,68,0.00,,,0.00,WUHU216HW,2013-01-08 16:47:00,
2013-01-08 11:52:00,51.5,41.3,30.13,South,180,2.5,5.4,68,0.00,,,0.00,WUHU216HW,2013-01-08 16:52:00,
2013-01-08 11:57:00,52.2,41.6,30.13,SSW,203,1.1,4.5,67,0.00,,,0.00,WUHU216HW,2013-01-08 16:57:00,
2013-01-08 12:02:00,52.2,41.1,30.13,South,180,6.3,6.3,66,0.00,,,0.00,WUHU216HW,2013-01-08 17:02:00,
2013-01-08 12:07:00,52.9,42.2,30.13,SSW,203,3.6,6.3,67,0.00,,,0.00,WUHU216HW,2013-01-08 17:07:00,
2013-01-08 12:12:00,53.6,42.1,30.13,WSW,248,2.0,6.3,65,0.00,,,0.00,WUHU216HW,2013-01-08 17:12:00,
2013-01-08 12:17:00,53.6,41.8,30.13,South,180,5.4,5.4,64,0.00,,,0.00,WUHU216HW,2013-01-08 17:17:00,
2013-01-08 12:22:00,53.8,41.5,30.13,SSW,203,3.4,5.4,63,0.00,,,0.00,WUHU216HW,2013-01-08 17:22:00,
2013-01-08 12:27:00,54.0,41.7,30.13,SSE,158,4.0,5.4,63,0.00,,,0.00,WUHU216HW,2013-01-08 17:27:00,
2013-01-08 12:32:00,54.4,41.6,30.13,SW,225,2.0,4.0,62,0.00,,,0.00,WUHU216HW,2013-01-08 17:32:00,
2013-01-08 12:37:00,54.7,42.0,30.13,SE,135,1.3,4.0,62,0.00,,,0.00,WUHU216HW,2013-01-08 17:37:00,
2013-01-08 12:42:00,55.1,42.3,30.12,WSW,248,2.5,2.5,62,0.00,,,0.00,WUHU216HW,2013-01-08 17:42:00,
2013-01-08 12:47:00,56.0,42.8,30.12,SW,225,0.2,4.9,61,0.00,,,0.00,WUHU216HW,2013-01-08 17:47:00,
2013-01-08 12:52:00,56.5,42.8,30.12,SSE,158,1.3,4.9,60,0.00,,,0.00,WUHU216HW,2013-01-08 17:52:00,
2013-01-08 12:57:00,56.7,42.6,30.11,South,180,3.8,3.8,59,0.00,,,0.00,WUHU216HW,2013-01-08 17:57:00,
2013-01-08 13:02:00,57.2,42.7,30.11,SW,225,2.7,3.8,58,0.00,,,0.00,WUHU216HW,2013-01-08 18:02:00,
2013-01-08 13:07:00,57.2,41.7,30.11,WNW,293,3.8,5.6,56,0.00,,,0.00,WUHU216HW,2013-01-08 18:07:00,
2013-01-08 13:12:00,57.2,41.7,30.11,WSW,248,3.1,5.6,56,0.00,,,0.00,WUHU216HW,2013-01-08 18:12:00,
2013-01-08 13:17:00,57.1,40.6,30.11,South,180,3.1,3.6,54,0.00,,,0.00,WUHU216HW,2013-01-08 18:17:00,
2013-01-08 13:23:00,56.7,40.7,30.11,SSW,203,3.8,3.8,55,0.00,,,0.00,WUHU216HW,2013-01-08 18:23:00,
2013-01-08 13:28:00,57.2,40.8,30.11,ESE,113,0.7,3.8,54,0.00,,,0.00,WUHU216HW,2013-01-08 18:28:00,
2013-01-08 13:33:00,57.2,41.2,30.11,SSW,203,3.4,3.8,55,0.00,,,0.00,WUHU216HW,2013-01-08 18:33:00,
2013-01-08 13:38:00,57.4,41.4,30.11,SSW,203,2.5,3.4,55,0.00,,,0.00,WUHU216HW,2013-01-08 18:38:00,
2013-01-08 13:43:00,57.8,42.2,30.11,SSW,203,2.5,3.4,56,0.00,,,0.00,WUHU216HW,2013-01-08 18:43:00,
2013-01-08 13:48:00,57.8,41.7,30.11,SSW,203,1.8,2.9,55,0.00,,,0.00,WUHU216HW,2013-01-08 18:48:00,
2013-01-08 13:53:00,57.4,41.0,30.11,SSW,203,1.8,2.9,54,0.00,,,0.00,WUHU216HW,2013-01-08 18:53:00,
2013-01-08 13:58:00,57.4,41.0,30.11,WSW,248,0.4,2.9,54,0.00,,,0.00,WUHU216HW,2013-01-08 18:58:00,
2013-01-08 14:03:00,57.4,40.4,30.11,SSW,203,3.4,3.4,53,0.02,,,0.02,WUHU216HW,2013-01-08 19:03:00,
2013-01-08 14:08:00,57.1,40.6,30.11,West,270,1.1,3.4,54,0.02,,,0.02,WUHU216HW,2013-01-08 19:08:00,
2013-01-08 14:13:00,57.2,40.8,30.11,South,180,1.8,3.4,54,0.02,,,0.02,WUHU216HW,2013-01-08 19:13:00,
2013-01-08 14:18:00,57.1,40.6,30.11,South,180,2.9,5.4,54,0.02,,,0.02,WUHU216HW,2013-01-08 19:18:00,
2013-01-08 14:23:00,57.2,40.8,30.11,ESE,113,1.3,5.4,54,0.02,,,0.02,WUHU216HW,2013-01-08 19:23:00,
2013-01-08 14:28:00,57.1,40.2,30.12,SW,225,2.7,2.9,53,0.02,,,0.02,WUHU216HW,2013-01-08 19:28:00,
2013-01-08 14:33:00,56.5,39.1,30.11,South,180,1.3,2.7,52,0.02,,,0.02,WUHU216HW,2013-01-08 19:33:00,
2013-01-08 14:38:00,56.5,39.6,30.11,SSW,203,0.9,2.7,53,0.02,,,0.02,WUHU216HW,2013-01-08 19:38:00,
2013-01-08 14:43:00,56.5,39.6,30.11,ESE,113,2.5,2.5,53,0.02,,,0.02,WUHU216HW,2013-01-08 19:43:00,
2013-01-08 14:48:00,56.5,39.6,30.11,NNW,338,1.1,2.5,53,0.02,,,0.02,WUHU216HW,2013-01-08 19:48:00,
2013-01-08 14:53:00,56.5,39.6,30.11,South,180,2.7,3.1,53,0.02,,,0.02,WUHU216HW,2013-01-08 19:53:00,
2013-01-08 14:58:00,56.5,38.6,30.11,WSW,248,1.1,3.1,51,0.02,,,0.02,WUHU216HW,2013-01-08 19:58:00,
2013-01-08 15:03:00,56.0,38.1,30.11,SE,135,1.8,2.7,51,0.00,,,0.02,WUHU216HW,2013-01-08 20:03:00,
2013-01-08 15:08:00,55.6,37.7,30.11,SSW,203,1.1,1.8,51,0.00,,,0.02,WUHU216HW,2013-01-08 20:08:00,
2013-01-08 15:13:00,55.6,38.2,30.11,West,270,0.4,3.1,52,0.00,,,0.02,WUHU216HW,2013-01-08 20:13:00,
2013-01-08 15:18:00,55.4,37.5,30.12,West,270,1.1,3.1,51,0.00,,,0.02,WUHU216HW,2013-01-08 20:18:00,
2013-01-08 15:23:00,55.3,37.9,30.12,SSW,203,1.8,1.8,52,0.00,,,0.02,WUHU216HW,2013-01-08 20:23:00,
2013-01-08 15:28:00,55.3,37.9,30.12,ENE,68,0.7,1.8,52,0.00,,,0.02,WUHU216HW,2013-01-08 20:28:00,
2013-01-08 15:33:00,55.3,38.4,30.13,SE,135,4.0,4.0,53,0.00,,,0.02,WUHU216HW,2013-01-08 20:33:00,
2013-01-08 15:38:00,54.9,38.0,30.12,SSE,158,2.0,4.0,53,0.00,,,0.02,WUHU216HW,2013-01-08 20:38:00,
2013-01-08 15:43:00,54.2,37.4,30.12,East,90,1.6,4.0,53,0.00,,,0.02,WUHU216HW,2013-01-08 20:43:00,
2013-01-08 15:48:00,53.6,37.4,30.13,ENE,68,1.1,2.0,54,0.00,,,0.02,WUHU216HW,2013-01-08 20:48:00,
2013-01-08 15:53:00,52.6,36.8,30.13,South,180,3.4,3.4,55,0.00,,,0.02,WUHU216HW,2013-01-08 20:53:00,
2013-01-08 15:58:00,52.0,36.3,30.13,SSW,203,1.6,3.4,55,0.00,,,0.02,WUHU216HW,2013-01-08 20:58:00,
2013-01-08 16:03:00,51.1,35.9,30.13,SE,135,2.0,3.4,56,0.00,,,0.02,WUHU216HW,2013-01-08 21:03:00,
2013-01-08 16:08:00,50.8,36.0,30.13,ESE,113,0.0,2.0,57,0.00,,,0.02,WUHU216HW,2013-01-08 21:08:00,
2013-01-08 16:13:00,50.6,35.8,30.13,ESE,113,0.7,2.0,57,0.00,,,0.02,WUHU216HW,2013-01-08 21:13:00,
2013-01-08 16:18:00,50.0,35.8,30.13,East,90,0.4,0.7,58,0.00,,,0.02,WUHU216HW,2013-01-08 21:18:00,
2013-01-08 16:23:00,50.0,35.8,30.13,SE,135,0.9,0.9,58,0.00,,,0.02,WUHU216HW,2013-01-08 21:23:00,
2013-01-08 16:28:00,49.7,35.9,30.12,SE,135,1.1,1.1,59,0.00,,,0.02,WUHU216HW,2013-01-08 21:28:00,
2013-01-08 16:33:00,49.3,36.1,30.13,SSE,158,1.8,2.0,60,0.00,,,0.02,WUHU216HW,2013-01-08 21:33:00,
2013-01-08 16:38:00,49.3,36.1,30.13,ESE,113,1.3,2.0,60,0.00,,,0.02,WUHU216HW,2013-01-08 21:38:00,
2013-01-08 16:43:00,49.0,35.7,30.13,East,90,2.0,2.7,60,0.00,,,0.02,WUHU216HW,2013-01-08 21:43:00,
2013-01-08 16:48:00,48.6,35.8,30.13,East,90,1.8,2.7,61,0.00,,,0.02,WUHU216HW,2013-01-08 21:48:00,
2013-01-08 16:53:00,48.2,35.5,30.13,SSE,158,0.9,2.0,61,0.00,,,0.02,WUHU216HW,2013-01-08 21:53:00,
2013-01-08 16:58:00,47.7,34.9,30.13,East,90,0.7,1.8,61,0.00,,,0.02,WUHU216HW,2013-01-08 21:58:00,
2013-01-08 17:03:00,47.3,34.6,30.13,ESE,113,1.1,3.1,61,0.00,,,0.02,WUHU216HW,2013-01-08 22:03:00,
2013-01-08 17:08:00,47.0,34.2,30.13,ESE,113,0.0,3.1,61,0.00,,,0.02,WUHU216HW,2013-01-08 22:08:00,
2013-01-08 17:13:00,46.8,34.5,30.13,SE,135,0.9,1.1,62,0.00,,,0.02,WUHU216HW,2013-01-08 22:13:00,
2013-01-08 17:18:00,46.6,34.7,30.13,SE,135,0.4,0.9,63,0.00,,,0.02,WUHU216HW,2013-01-08 22:18:00,
2013-01-08 17:23:00,46.4,34.5,30.13,ESE,113,0.4,1.1,63,0.00,,,0.02,WUHU216HW,2013-01-08 22:23:00,
2013-01-08 17:28:00,46.4,34.9,30.13,ENE,68,0.7,1.3,64,0.00,,,0.02,WUHU216HW,2013-01-08 22:28:00,
2013-01-08 17:33:00,46.4,34.9,30.13,SSW,203,0.2,1.3,64,0.00,,,0.02,WUHU216HW,2013-01-08 22:33:00,
2013-01-08 17:38:00,46.4,35.3,30.13,ENE,68,1.3,1.3,65,0.00,,,0.02,WUHU216HW,2013-01-08 22:38:00,
2013-01-08 17:43:00,46.4,35.3,30.13,East,90,1.6,1.6,65,0.00,,,0.02,WUHU216HW,2013-01-08 22:43:00,
2013-01-08 17:48:00,46.4,35.3,30.12,SE,135,1.8,1.8,65,0.00,,,0.02,WUHU216HW,2013-01-08 22:48:00,
2013-01-08 17:53:00,46.4,35.3,30.13,East,90,2.5,2.5,65,0.00,,,0.02,WUHU216HW,2013-01-08 22:53:00,
2013-01-08 17:58:00,46.4,35.3,30.12,NE,45,1.1,2.5,65,0.00,,,0.02,WUHU216HW,2013-01-08 22:58:00,
2013-01-08 18:03:00,45.9,34.7,30.12,East,90,0.2,2.5,65,0.00,,,0.02,WUHU216HW,2013-01-08 23:03:00,
2013-01-08 18:08:00,45.5,34.5,30.12,ESE,113,0.9,1.1,65,0.00,,,0.02,WUHU216HW,2013-01-08 23:08:00,
2013-01-08 18:13:00,45.2,34.5,30.12,SE,135,1.1,1.1,66,0.00,,,0.02,WUHU216HW,2013-01-08 23:13:00,
2013-01-08 18:18:00,44.8,34.1,30.12,ESE,113,0.2,1.1,66,0.00,,,0.02,WUHU216HW,2013-01-08 23:18:00,
2013-01-08 18:23:00,44.5,34.2,30.12,ENE,68,0.0,1.1,67,0.00,,,0.02,WUHU216HW,2013-01-08 23:23:00,
2013-01-08 18:28:00,44.3,34.0,30.12,ESE,113,0.0,0.2,67,0.00,,,0.02,WUHU216HW,2013-01-08 23:28:00,
2013-01-08 18:33:00,43.9,33.7,30.12,East,90,0.2,0.2,67,0.00,,,0.02,WUHU216HW,2013-01-08 23:33:00,
2013-01-08 18:38:00,43.6,33.8,30.12,ENE,68,0.2,0.2,68,0.00,,,0.02,WUHU216HW,2013-01-08 23:38:00,
2013-01-08 18:43:00,43.6,33.8,30.12,East,90,0.4,0.4,68,0.00,,,0.02,WUHU216HW,2013-01-08 23:43:00,
2013-01-08 18:48:00,43.0,33.2,30.12,East,90,0.2,0.4,68,0.00,,,0.02,WUHU216HW,2013-01-08 23:48:00,
2013-01-08 18:53:00,42.8,33.5,30.13,East,90,0.2,0.2,69,0.00,,,0.02,WUHU216HW,2013-01-08 23:53:00,
2013-01-08 18:58:00,42.8,33.8,30.13,East,90,0.0,0.2,70,0.00,,,0.02,WUHU216HW,2013-01-08 23:58:00,
2013-01-08 19:03:00,42.8,33.8,30.14,SSW,203,1.1,1.1,70,0.00,,,0.02,WUHU216HW,2013-01-09 00:03:00,
2013-01-08 19:08:00,43.2,34.5,30.14,SSW,203,0.0,1.1,71,0.00,,,0.02,WUHU216HW,2013-01-09 00:08:00,
2013-01-08 19:13:00,43.4,34.3,30.14,South,180,0.4,1.1,70,0.00,,,0.02,WUHU216HW,2013-01-09 00:13:00,
2013-01-08 19:18:00,43.6,34.5,30.14,ESE,113,0.4,1.3,70,0.00,,,0.02,WUHU216HW,2013-01-09 00:18:00,
2013-01-08 19:23:00,43.7,35.0,30.14,ENE,68,0.4,1.8,71,0.00,,,0.02,WUHU216HW,2013-01-09 00:23:00,
2013-01-08 19:29:00,43.9,35.5,30.14,SE,135,0.7,1.8,72,0.00,,,0.02,WUHU216HW,2013-01-09 00:29:00,
2013-01-08 19:34:00,43.9,35.5,30.14,SSE,158,0.2,1.1,72,0.00,,,0.02,WUHU216HW,2013-01-09 00:34:00,
2013-01-08 19:39:00,44.1,35.6,30.14,SE,135,0.4,1.1,72,0.00,,,0.02,WUHU216HW,2013-01-09 00:39:00,
2013-01-08 19:44:00,44.3,35.8,30.14,South,180,0.0,0.4,72,0.00,,,0.02,WUHU216HW,2013-01-09 00:44:00,
2013-01-08 19:49:00,44.3,35.8,30.13,SSE,158,0.9,1.1,72,0.00,,,0.02,WUHU216HW,2013-01-09 00:49:00,
2013-01-08 19:54:00,44.3,35.8,30.13,East,90,1.1,1.1,72,0.00,,,0.02,WUHU216HW,2013-01-09 00:54:00,
2013-01-08 19:59:00,44.5,36.0,30.13,ESE,113,0.7,1.6,72,0.00,,,0.02,WUHU216HW,2013-01-09 00:59:00,
2013-01-08 20:04:00,44.5,36.0,30.13,West,270,0.4,1.6,72,0.00,,,0.02,WUHU216HW,2013-01-09 01:04:00,
2013-01-08 20:09:00,44.5,36.0,30.12,ESE,113,2.0,2.0,72,0.00,,,0.02,WUHU216HW,2013-01-09 01:09:00,
2013-01-08 20:14:00,44.3,35.8,30.13,WSW,248,0.2,2.0,72,0.00,,,0.02,WUHU216HW,2013-01-09 01:14:00,
2013-01-08 20:19:00,44.1,35.6,30.13,East,90,0.4,2.0,72,0.00,,,0.02,WUHU216HW,2013-01-09 01:19:00,
2013-01-08 20:24:00,43.6,34.8,30.12,SSW,203,0.2,1.3,71,0.00,,,0.02,WUHU216HW,2013-01-09 01:24:00,
2013-01-08 20:29:00,43.2,34.5,30.13,SSE,158,0.9,1.3,71,0.00,,,0.02,WUHU216HW,2013-01-09 01:29:00,
2013-01-08 20:34:00,43.0,34.3,30.12,SSE,158,0.0,0.9,71,0.00,,,0.02,WUHU216HW,2013-01-09 01:34:00,
2013-01-08 20:39:00,42.5,34.1,30.12,ESE,113,0.4,0.9,72,0.00,,,0.02,WUHU216HW,2013-01-09 01:39:00,
2013-01-08 20:44:00,42.3,33.9,30.12,SE,135,0.4,0.7,72,0.00,,,0.02,WUHU216HW,2013-01-09 01:44:00,
2013-01-08 20:49:00,42.1,34.1,30.12,SSE,158,0.0,0.7,73,0.00,,,0.02,WUHU216HW,2013-01-09 01:49:00,
2013-01-08 20:54:00,41.9,34.2,30.13,SE,135,0.0,0.4,74,0.00,,,0.02,WUHU216HW,2013-01-09 01:54:00,
2013-01-08 20:59:00,41.9,34.2,30.13,SW,225,0.2,0.2,74,0.00,,,0.02,WUHU216HW,2013-01-09 01:59:00,
2013-01-08 21:04:00,41.9,34.6,30.13,SSW,203,0.0,0.4,75,0.00,,,0.02,WUHU216HW,2013-01-09 02:04:00,
2013-01-08 21:09:00,41.9,34.6,30.13,East,90,0.0,0.4,75,0.00,,,0.02,WUHU216HW,2013-01-09 02:09:00,
2013-01-08 21:14:00,42.1,35.1,30.13,SSW,203,0.0,0.4,76,0.00,,,0.02,WUHU216HW,2013-01-09 02:14:00,
2013-01-08 21:19:00,42.3,35.3,30.13,ENE,68,0.0,0.4,76,0.00,,,0.02,WUHU216HW,2013-01-09 02:19:00,
2013-01-08 21:24:00,42.5,35.5,30.14,SW,225,0.4,0.4,76,0.00,,,0.02,WUHU216HW,2013-01-09 02:24:00,
2013-01-08 21:29:00,42.8,35.8,30.14,SW,225,0.7,1.1,76,0.00,,,0.02,WUHU216HW,2013-01-09 02:29:00,
2013-01-08 21:34:00,42.8,35.8,30.14,SW,225,0.0,1.1,76,0.00,,,0.02,WUHU216HW,2013-01-09 02:34:00,
2013-01-08 21:39:00,42.8,35.8,30.15,West,270,1.1,1.1,76,0.00,,,0.02,WUHU216HW,2013-01-09 02:39:00,
2013-01-08 21:44:00,43.0,36.0,30.14,WSW,248,0.0,1.1,76,0.00,,,0.02,WUHU216HW,2013-01-09 02:44:00,
2013-01-08 21:49:00,42.8,35.8,30.14,SW,225,0.0,0.4,76,0.00,,,0.02,WUHU216HW,2013-01-09 02:49:00,
2013-01-08 21:54:00,42.7,35.3,30.14,SW,225,0.0,0.4,75,0.00,,,0.02,WUHU216HW,2013-01-09 02:54:00,
2013-01-08 21:59:00,42.1,34.7,30.14,SW,225,0.0,0.0,75,0.00,,,0.02,WUHU216HW,2013-01-09 02:59:00,
2013-01-08 22:04:00,41.6,34.2,30.14,SW,225,0.0,0.0,75,0.00,,,0.02,WUHU216HW,2013-01-09 03:04:00,
2013-01-08 22:09:00,41.2,34.2,30.14,SW,225,0.0,0.0,76,0.00,,,0.02,WUHU216HW,2013-01-09 03:09:00,
2013-01-08 22:14:00,41.0,34.0,30.14,SW,225,0.0,0.0,76,0.00,,,0.02,WUHU216HW,2013-01-09 03:14:00,
2013-01-08 22:19:00,40.3,33.3,30.14,SW,225,0.0,0.0,76,0.00,,,0.02,WUHU216HW,2013-01-09 03:19:00,
2013-01-08 22:24:00,40.0,32.9,30.13,SW,225,0.0,0.0,76,0.00,,,0.02,WUHU216HW,2013-01-09 03:24:00,
2013-01-08 22:29:00,39.6,32.9,30.13,SW,225,0.0,0.0,77,0.00,,,0.02,WUHU216HW,2013-01-09 03:29:00,
2013-01-08 22:34:00,39.2,32.7,30.13,SW,225,0.0,0.0,77,0.00,,,0.02,WUHU216HW,2013-01-09 03:34:00,
2013-01-08 22:39:00,38.9,32.3,30.13,SW,225,0.0,0.0,77,0.00,,,0.02,WUHU216HW,2013-01-09 03:39:00,
2013-01-08 22:45:00,38.5,32.0,30.13,SW,225,0.0,0.0,77,0.00,,,0.02,WUHU216HW,2013-01-09 03:45:00,
2013-01-08 22:50:00,38.2,31.6,30.13,SW,225,0.0,0.0,77,0.00,,,0.02,WUHU216HW,2013-01-09 03:50:00,
2013-01-08 22:55:00,37.8,31.2,30.13,SW,225,0.0,0.0,77,0.00,,,0.02,WUHU216HW,2013-01-09 03:55:00,
2013-01-08 23:00:00,37.4,31.2,30.13,SW,225,0.0,0.0,78,0.00,,,0.02,WUHU216HW,2013-01-09 04:00:00,
2013-01-08 23:05:00,37.3,31.1,30.13,SW,225,0.0,0.0,78,0.00,,,0.02,WUHU216HW,2013-01-09 04:05:00,
2013-01-08 23:10:00,36.9,30.7,30.13,SW,225,0.0,0.0,78,0.00,,,0.02,WUHU216HW,2013-01-09 04:10:00,
2013-01-08 23:15:00,36.7,30.8,30.13,SW,225,0.0,0.0,79,0.00,,,0.02,WUHU216HW,2013-01-09 04:15:00,
2013-01-08 23:20:00,36.4,30.4,30.13,SW,225,0.0,0.0,79,0.00,,,0.02,WUHU216HW,2013-01-09 04:20:00,
2013-01-08 23:25:00,36.2,30.6,30.13,SW,225,0.0,0.0,80,0.00,,,0.02,WUHU216HW,2013-01-09 04:25:00,
2013-01-08 23:30:00,35.8,30.2,30.13,SW,225,0.0,0.0,80,0.00,,,0.02,WUHU216HW,2013-01-09 04:30:00,
2013-01-08 23:35:00,35.6,30.1,30.13,SW,225,0.0,0.0,80,0.00,,,0.02,WUHU216HW,2013-01-09 04:35:00,
2013-01-08 23:40:00,35.5,29.9,30.12,SW,225,0.0,0.0,80,0.00,,,0.02,WUHU216HW,2013-01-09 04:40:00,
2013-01-08 23:45:00,35.1,29.5,30.12,SW,225,0.0,0.0,80,0.00,,,0.02,WUHU216HW,2013-01-09 04:45:00,
2013-01-08 23:50:00,34.9,29.3,30.13,SW,225,0.0,0.2,80,0.00,,,0.02,WUHU216HW,2013-01-09 04:50:00,
2013-01-08 23:55:00,34.7,29.4,30.13,SW,225,0.0,0.2,81,0.00,,,0.02,WUHU216HW,2013-01-09 04:55:00,
2013-01-08 23:59:00,34.6,29.3,30.12,SW,225,0.0,0.0,81,0.00,,,0.02,WUHU216HW,2013-01-09 04:59:00,